logo tempoitalia

Diretta Meteo Newport, Stati Uniti (USA)domenica 30 agosto ore 23:35

Mappa
Sereno 11 °C Sereno 24 Ore: T.min 9 T.max 18
Ponente Nord Km/h 5.5 Punto di rugiada: 11 °C Umidità: 100% Visibilità: 10 Km
Il sole sorge alle: 06:36 Il sole tramonta alle: 19:56
30 Agosto 2026 23:35 tempo osservato: Sereno Sereno 11 100 1015 vento: Nord N 5.5
30 Agosto 2026 23:15 tempo osservato: Sereno Sereno 11 93 1015 vento: Nord N 0
30 Agosto 2026 22:55 tempo osservato: Sereno Sereno 11 100 1015 vento: Nord N 0
30 Agosto 2026 22:35 tempo osservato: Sereno Sereno 11 100 1016 vento: Nord N 0
30 Agosto 2026 22:15 tempo osservato: Sereno Sereno 11 100 1016 vento: Nord N 0
30 Agosto 2026 21:55 tempo osservato: Sereno Sereno 12 93 1016 vento: Nord N 0
30 Agosto 2026 21:35 tempo osservato: Sereno Sereno 12 93 1016 vento: Nord N 0
30 Agosto 2026 21:15 tempo osservato: Sereno Sereno 13 93 1016 vento: Nord N 0
30 Agosto 2026 20:55 tempo osservato: Sereno Sereno 14 87 1016 vento: Nord N 7.4
30 Agosto 2026 20:35 tempo osservato: Sereno Sereno 15 82 1016 vento: Nord N 9.3
30 Agosto 2026 20:15 tempo osservato: Sereno Sereno 15 82 1016 vento: Nord N 14.8
30 Agosto 2026 19:55 tempo osservato: Sereno Sereno 15 82 1016 vento: Nord N 18.5
30 Agosto 2026 19:35 tempo osservato: Sereno Sereno 16 77 1016 vento: Nord N 18.5
30 Agosto 2026 19:15 tempo osservato: Sereno Sereno 16 77 1016 vento: Nord N 20.3
30 Agosto 2026 18:55 tempo osservato: Sereno Sereno 16 77 1017 vento: Nord N 20.3
30 Agosto 2026 18:35 tempo osservato: Sereno Sereno 17 72 1017 vento: Nord N 24
30 Agosto 2026 18:15 tempo osservato: Sereno Sereno 17 72 1017 vento: Nord N 29.6
30 Agosto 2026 17:55 tempo osservato: Sereno Sereno 17 77 1017 vento: Nord N 22.2
30 Agosto 2026 17:35 tempo osservato: Sereno Sereno 17 77 1017 vento: Nord N 25.9
30 Agosto 2026 17:15 tempo osservato: Sereno Sereno 18 72 1018 vento: Nord N 22.2
30 Agosto 2026 16:55 tempo osservato: Sereno Sereno 18 72 1018 vento: Nord N 27.8
30 Agosto 2026 16:35 tempo osservato: Sereno Sereno 18 67 1018 vento: Nord N 27.8
30 Agosto 2026 16:15 tempo osservato: Sereno Sereno 18 67 1018 vento: Nord N 24
30 Agosto 2026 15:55 tempo osservato: Sereno Sereno 18 67 1018 vento: Nord N/NO 29.6
30 Agosto 2026 15:35 tempo osservato: Sereno Sereno 18 67 1019 vento: Nord N/NO 29.6
30 Agosto 2026 15:15 tempo osservato: Sereno Sereno 18 67 1019 vento: Nord N/NO 24
30 Agosto 2026 14:55 tempo osservato: Sereno Sereno 18 67 1019 vento: Nord N 25.9
30 Agosto 2026 14:35 tempo osservato: Sereno Sereno 18 67 1019 vento: Nord N/NO 22.2
30 Agosto 2026 14:15 tempo osservato: Sereno Sereno 18 67 1020 vento: Nord N/NO 22.2
30 Agosto 2026 13:55 tempo osservato: Sereno Sereno 18 67 1020 vento: Nord N/NO 22.2
30 Agosto 2026 13:35 tempo osservato: Sereno Sereno 17 72 1020 vento: Nord N/NO 22.2
30 Agosto 2026 13:15 tempo osservato: Sereno Sereno 17 72 1020 vento: Nord N/NO 22.2
30 Agosto 2026 12:55 tempo osservato: Sereno Sereno 17 67 1020 vento: Nord N/NO 20.3
30 Agosto 2026 12:35 tempo osservato: Sereno Sereno 17 67 1020 vento: Nord N/NO 16.7
30 Agosto 2026 12:15 tempo osservato: Sereno Sereno 18 59 1020 vento: Nord N/NO 16.7
30 Agosto 2026 11:55 tempo osservato: Sereno Sereno 18 59 1021 vento: Nord N/NO 14.8
30 Agosto 2026 11:35 tempo osservato: Sereno Sereno 18 55 1021 vento: Nord NE 9.3
30 Agosto 2026 11:15 tempo osservato: Sereno Sereno 18 59 1021 vento: Nord NE 9.3
30 Agosto 2026 10:55 tempo osservato: Sereno Sereno 18 59 1021 vento: Nord N 5.5
30 Agosto 2026 10:35 tempo osservato: Sereno Sereno 17 67 1021 vento: Nord E/NE 7.4
30 Agosto 2026 10:15 tempo osservato: Sereno Sereno 17 67 1021 vento: Nord E 13
30 Agosto 2026 09:55 tempo osservato: Sereno Sereno 16 72 1021 vento: Nord E 11.1
30 Agosto 2026 09:35 tempo osservato: Sereno Sereno 15 82 1021 vento: Nord E 9.3
30 Agosto 2026 09:15 tempo osservato: Sereno Sereno 13 93 1021 vento: Nord E 11.1
30 Agosto 2026 08:55 tempo osservato: Sereno Sereno 12 100 1021 vento: Nord E 9.3
30 Agosto 2026 08:35 tempo osservato: Sereno Sereno 11 100 1021 vento: Nord E 9.3
30 Agosto 2026 08:15 tempo osservato: Sereno Sereno 11 100 1021 vento: Nord E 9.3
30 Agosto 2026 07:55 tempo osservato: Sereno Sereno 10 100 1021 vento: Nord E 7.4
30 Agosto 2026 07:35 tempo osservato: Sereno Sereno 10 100 1021 vento: Nord N 5.5
30 Agosto 2026 07:15 tempo osservato: Sereno Sereno 9 100 1021 vento: Nord N 5.5
30 Agosto 2026 06:55 tempo osservato: Nuvoloso Nuvoloso 9 100 1021 vento: Nord E 9.3
30 Agosto 2026 06:35 tempo osservato: Foschia Foschia 9 100 1021 vento: Nord E 9.3
30 Agosto 2026 06:15 tempo osservato: Sereno Sereno 9 100 1021 vento: Nord E 13
30 Agosto 2026 05:55 tempo osservato: Sereno Sereno 9 100 1021 vento: Nord N 0
30 Agosto 2026 05:35 tempo osservato: Sereno Sereno 9 100 1021 vento: Nord E 7.4
30 Agosto 2026 05:15 tempo osservato: Sereno Sereno 9 100 1021 vento: Nord E 9.3
30 Agosto 2026 04:55 tempo osservato: Sereno Sereno 9 100 1021 vento: Nord N 0
30 Agosto 2026 04:35 tempo osservato: Sereno Sereno 10 100 1021 vento: Nord E 7.4
30 Agosto 2026 04:15 tempo osservato: Sereno Sereno 10 100 1021 vento: Nord N 0
30 Agosto 2026 03:55 tempo osservato: Sereno Sereno 10 100 1021 vento: Nord N 0
30 Agosto 2026 03:35 tempo osservato: Sereno Sereno 10 100 1021 vento: Nord N 5.5
30 Agosto 2026 03:15 tempo osservato: Sereno Sereno 9 100 1021 vento: Nord N 0
30 Agosto 2026 02:55 tempo osservato: Sereno Sereno 10 100 1021 vento: Nord N 0
30 Agosto 2026 02:35 tempo osservato: Sereno Sereno 10 100 1021 vento: Nord N 0
30 Agosto 2026 02:15 tempo osservato: Sereno Sereno 10 100 1021 vento: Nord N 0
30 Agosto 2026 01:55 tempo osservato: Sereno Sereno 11 100 1021 vento: Nord N 5.5
30 Agosto 2026 01:35 tempo osservato: Sereno Sereno 10 100 1021 vento: Nord N 0
30 Agosto 2026 01:15 tempo osservato: Sereno Sereno 10 100 1021 vento: Nord N 0
30 Agosto 2026 00:55 tempo osservato: Sereno Sereno 10 100 1021 vento: Nord N 0
30 Agosto 2026 00:35 tempo osservato: Sereno Sereno 10 100 1021 vento: Nord N 5.5
30 Agosto 2026 00:15 tempo osservato: Sereno Sereno 10 93 1021 vento: Nord N 0
29 Agosto 2026 23:55 tempo osservato: Sereno Sereno 10 100 1021 vento: Nord N 0
29 Agosto 2026 23:35 tempo osservato: Sereno Sereno 10 93 1021 vento: Nord N 0